Time,TemperatureF,DewpointF,PressureIn,WindDirection,WindDirectionDegrees,WindSpeedMPH,WindSpeedGustMPH,Humidity,HourlyPrecipIn,Conditions,Clouds,dailyrainin,SoftwareType,DateUTC
2013-02-03 00:09:00,37.6,37.0,30.16,WSW,248,4.0,-999.0,96,-99.99,,,0.00,weatherlink.com 1.10,2013-02-03 06:09:00,
2013-02-03 00:24:00,37.5,36.0,30.16,SW,229,2.0,-999.0,95,-99.99,,,0.00,weatherlink.com 1.10,2013-02-03 06:24:00,
2013-02-03 00:39:00,37.3,36.0,30.16,SW,221,1.0,-999.0,95,-99.99,,,0.00,weatherlink.com 1.10,2013-02-03 06:39:00,
2013-02-03 00:55:00,37.0,36.0,30.16,SW,229,4.0,-999.0,95,-99.99,,,0.00,weatherlink.com 1.10,2013-02-03 06:55:00,
2013-02-03 01:09:00,36.8,36.0,30.15,SW,228,1.0,-999.0,95,-99.99,,,0.00,weatherlink.com 1.10,2013-02-03 07:09:00,
2013-02-03 01:24:00,36.8,36.0,30.15,South,186,6.0,-999.0,95,-99.99,,,0.00,weatherlink.com 1.10,2013-02-03 07:24:00,
2013-02-03 01:39:00,36.8,36.0,30.14,WSW,245,4.0,-999.0,95,-99.99,,,0.00,weatherlink.com 1.10,2013-02-03 07:39:00,
2013-02-03 01:54:00,36.9,36.0,30.14,SW,235,4.0,-999.0,95,-99.99,,,0.00,weatherlink.com 1.10,2013-02-03 07:54:00,
2013-02-03 02:09:00,36.6,36.0,30.14,WSW,237,0.0,-999.0,96,-99.99,,,0.00,weatherlink.com 1.10,2013-02-03 08:09:00,
2013-02-03 02:24:00,36.4,35.0,30.14,West,266,4.0,-999.0,96,-99.99,,,0.00,weatherlink.com 1.10,2013-02-03 08:24:00,
2013-02-03 02:39:00,36.2,35.0,30.14,SSW,205,4.0,-999.0,95,-99.99,,,0.00,weatherlink.com 1.10,2013-02-03 08:39:00,
2013-02-03 02:54:00,36.1,35.0,30.13,South,188,2.0,-999.0,96,-99.99,,,0.00,weatherlink.com 1.10,2013-02-03 08:54:00,
2013-02-03 03:09:00,36.1,35.0,30.13,SW,215,3.0,-999.0,95,-99.99,,,0.00,weatherlink.com 1.10,2013-02-03 09:09:00,
2013-02-03 03:24:00,35.6,34.0,30.13,SSW,209,4.0,-999.0,95,-99.99,,,0.00,weatherlink.com 1.10,2013-02-03 09:24:00,
2013-02-03 03:40:00,35.6,34.0,30.12,SSW,209,0.0,-999.0,95,-99.99,,,0.00,weatherlink.com 1.10,2013-02-03 09:40:00,
2013-02-03 03:54:00,35.8,35.0,30.11,SW,236,0.0,-999.0,95,-99.99,,,0.00,weatherlink.com 1.10,2013-02-03 09:54:00,
2013-02-03 04:09:00,36.0,35.0,30.11,SSW,213,7.0,-999.0,95,-99.99,,,0.00,weatherlink.com 1.10,2013-02-03 10:09:00,
2013-02-03 04:24:00,35.8,35.0,30.11,SSW,211,4.0,-999.0,95,-99.99,,,0.00,weatherlink.com 1.10,2013-02-03 10:24:00,
2013-02-03 04:39:00,35.8,35.0,30.11,South,189,6.0,-999.0,95,-99.99,,,0.00,weatherlink.com 1.10,2013-02-03 10:39:00,
2013-02-03 04:54:00,36.0,35.0,30.11,SSW,192,4.0,-999.0,95,-99.99,,,0.00,weatherlink.com 1.10,2013-02-03 10:54:00,
2013-02-03 05:09:00,36.0,35.0,30.10,SSW,198,6.0,-999.0,95,-99.99,,,0.00,weatherlink.com 1.10,2013-02-03 11:09:00,
2013-02-03 05:24:00,36.0,35.0,30.11,SSW,209,6.0,-999.0,95,-99.99,,,0.00,weatherlink.com 1.10,2013-02-03 11:24:00,
2013-02-03 05:39:00,36.0,35.0,30.11,SSW,200,13.0,-999.0,95,-99.99,,,0.00,weatherlink.com 1.10,2013-02-03 11:39:00,
2013-02-03 05:54:00,36.0,35.0,30.11,SSW,206,6.0,-999.0,95,-99.99,,,0.00,weatherlink.com 1.10,2013-02-03 11:54:00,
2013-02-03 06:09:00,36.0,35.0,30.11,South,190,7.0,-999.0,95,-99.99,,,0.00,weatherlink.com 1.10,2013-02-03 12:09:00,
2013-02-03 06:25:00,36.0,35.0,30.10,South,177,4.0,-999.0,95,-99.99,,,0.00,weatherlink.com 1.10,2013-02-03 12:25:00,
2013-02-03 06:39:00,36.0,35.0,30.10,South,188,2.0,-999.0,95,-99.99,,,0.00,weatherlink.com 1.10,2013-02-03 12:39:00,
2013-02-03 06:54:00,35.9,35.0,30.10,SSE,161,5.0,-999.0,95,-99.99,,,0.00,weatherlink.com 1.10,2013-02-03 12:54:00,
2013-02-03 07:09:00,35.8,34.0,30.10,SW,217,6.0,-999.0,94,-99.99,,,0.00,weatherlink.com 1.10,2013-02-03 13:09:00,
2013-02-03 07:24:00,35.9,34.0,30.10,WSW,237,9.0,-999.0,94,-99.99,,,0.00,weatherlink.com 1.10,2013-02-03 13:24:00,
2013-02-03 07:39:00,36.0,35.0,30.10,SW,216,6.0,-999.0,94,-99.99,,,0.00,weatherlink.com 1.10,2013-02-03 13:39:00,
2013-02-03 07:54:00,36.6,35.0,30.10,SSW,212,6.0,-999.0,93,-99.99,,,0.00,weatherlink.com 1.10,2013-02-03 13:54:00,
2013-02-03 08:09:00,37.4,36.0,30.10,SSW,194,5.0,-999.0,93,-99.99,,,0.00,weatherlink.com 1.10,2013-02-03 14:09:00,
2013-02-03 08:24:00,39.1,36.0,30.10,SSW,193,9.0,-999.0,89,-99.99,,,0.00,weatherlink.com 1.10,2013-02-03 14:24:00,
2013-02-03 08:39:00,40.5,37.0,30.10,SW,220,9.0,-999.0,87,-99.99,,,0.00,weatherlink.com 1.10,2013-02-03 14:39:00,
2013-02-03 08:54:00,42.0,38.0,30.10,SSW,205,9.0,-999.0,85,-99.99,,,0.00,weatherlink.com 1.10,2013-02-03 14:54:00,
2013-02-03 09:10:00,44.3,39.0,30.10,NW,310,6.0,-999.0,80,-99.99,,,0.00,weatherlink.com 1.10,2013-02-03 15:10:00,
2013-02-03 09:24:00,46.1,38.0,30.10,West,272,7.0,-999.0,72,-99.99,,,0.00,weatherlink.com 1.10,2013-02-03 15:24:00,
2013-02-03 09:39:00,47.2,37.0,30.10,WNW,290,9.0,-999.0,68,-99.99,,,0.00,weatherlink.com 1.10,2013-02-03 15:39:00,
2013-02-03 09:54:00,48.2,36.0,30.11,NW,306,7.0,-999.0,62,-99.99,,,0.00,weatherlink.com 1.10,2013-02-03 15:54:00,
2013-02-03 10:09:00,48.3,35.0,30.10,West,260,7.0,-999.0,61,-99.99,,,0.00,weatherlink.com 1.10,2013-02-03 16:09:00,
2013-02-03 10:24:00,48.6,35.0,30.10,NNW,330,9.0,-999.0,59,-99.99,,,0.00,weatherlink.com 1.10,2013-02-03 16:24:00,
2013-02-03 10:39:00,49.1,35.0,30.10,West,260,10.0,-999.0,59,-99.99,,,0.00,weatherlink.com 1.10,2013-02-03 16:39:00,
2013-02-03 10:54:00,49.3,35.0,30.09,WSW,238,8.0,-999.0,58,-99.99,,,0.00,weatherlink.com 1.10,2013-02-03 16:54:00,
2013-02-03 11:09:00,50.1,34.0,30.09,WSW,251,9.0,-999.0,55,-99.99,,,0.00,weatherlink.com 1.10,2013-02-03 17:09:00,
2013-02-03 11:24:00,50.5,31.0,30.08,WSW,250,13.0,-999.0,48,-99.99,,,0.00,weatherlink.com 1.10,2013-02-03 17:24:00,
2013-02-03 11:39:00,50.6,32.0,30.07,SW,234,7.0,-999.0,49,-99.99,,,0.00,weatherlink.com 1.10,2013-02-03 17:39:00,
2013-02-03 11:55:00,51.5,31.0,30.07,West,277,7.0,-999.0,45,-99.99,,,0.00,weatherlink.com 1.10,2013-02-03 17:55:00,
2013-02-03 12:09:00,51.5,28.0,30.06,West,281,6.0,-999.0,41,-99.99,,,0.00,weatherlink.com 1.10,2013-02-03 18:09:00,
2013-02-03 12:24:00,51.5,29.0,30.06,NW,305,11.0,-999.0,43,-99.99,,,0.00,weatherlink.com 1.10,2013-02-03 18:24:00,
2013-02-03 12:39:00,52.0,28.0,30.06,West,274,9.0,-999.0,39,-99.99,,,0.00,weatherlink.com 1.10,2013-02-03 18:39:00,
2013-02-03 12:54:00,52.1,28.0,30.05,NW,309,10.0,-999.0,40,-99.99,,,0.00,weatherlink.com 1.10,2013-02-03 18:54:00,
2013-02-03 13:09:00,52.7,28.0,30.05,WNW,287,9.0,-999.0,38,-99.99,,,0.00,weatherlink.com 1.10,2013-02-03 19:09:00,
2013-02-03 13:24:00,52.8,30.0,30.05,WNW,297,7.0,-999.0,42,-99.99,,,0.00,weatherlink.com 1.10,2013-02-03 19:24:00,
2013-02-03 13:39:00,53.3,31.0,30.05,WNW,286,6.0,-999.0,42,-99.99,,,0.00,weatherlink.com 1.10,2013-02-03 19:39:00,
2013-02-03 13:54:00,53.7,30.0,30.05,West,277,10.0,-999.0,40,-99.99,,,0.00,weatherlink.com 1.10,2013-02-03 19:54:00,
2013-02-03 14:09:00,53.8,30.0,30.05,NW,316,19.0,-999.0,40,-99.99,,,0.00,weatherlink.com 1.10,2013-02-03 20:09:00,
2013-02-03 14:24:00,53.1,29.0,30.05,NNW,340,12.0,-999.0,39,-99.99,,,0.00,weatherlink.com 1.10,2013-02-03 20:24:00,
2013-02-03 14:40:00,53.4,29.0,30.05,NW,304,14.0,-999.0,39,-99.99,,,0.00,weatherlink.com 1.10,2013-02-03 20:40:00,
2013-02-03 14:54:00,53.3,29.0,30.06,West,267,10.0,-999.0,39,-99.99,,,0.00,weatherlink.com 1.10,2013-02-03 20:54:00,
2013-02-03 15:09:00,53.7,29.0,30.05,WNW,300,16.0,-999.0,39,-99.99,,,0.00,weatherlink.com 1.10,2013-02-03 21:09:00,
2013-02-03 15:24:00,53.7,29.0,30.05,WNW,285,9.0,-999.0,39,-99.99,,,0.00,weatherlink.com 1.10,2013-02-03 21:24:00,
2013-02-03 15:39:00,53.9,29.0,30.05,NW,316,11.0,-999.0,39,-99.99,,,0.00,weatherlink.com 1.10,2013-02-03 21:39:00,
2013-02-03 15:54:00,53.1,30.0,30.05,NW,317,9.0,-999.0,42,-99.99,,,0.00,weatherlink.com 1.10,2013-02-03 21:54:00,
2013-02-03 16:09:00,52.9,30.0,30.05,NW,325,11.0,-999.0,41,-99.99,,,0.00,weatherlink.com 1.10,2013-02-03 22:09:00,
2013-02-03 16:24:00,52.8,31.0,30.06,NW,306,8.0,-999.0,43,-99.99,,,0.00,weatherlink.com 1.10,2013-02-03 22:24:00,
2013-02-03 16:39:00,53.2,28.0,30.06,NW,319,12.0,-999.0,38,-99.99,,,0.00,weatherlink.com 1.10,2013-02-03 22:39:00,
2013-02-03 16:54:00,52.2,30.0,30.07,WNW,301,8.0,-999.0,42,-99.99,,,0.00,weatherlink.com 1.10,2013-02-03 22:54:00,
2013-02-03 17:09:00,51.6,30.0,30.07,NNW,327,10.0,-999.0,43,-99.99,,,0.00,weatherlink.com 1.10,2013-02-03 23:09:00,
2013-02-03 17:25:00,50.5,29.0,30.07,NW,309,5.0,-999.0,44,-99.99,,,0.00,weatherlink.com 1.10,2013-02-03 23:25:00,
2013-02-03 17:39:00,50.1,29.0,30.07,NW,305,5.0,-999.0,44,-99.99,,,0.00,weatherlink.com 1.10,2013-02-03 23:39:00,
2013-02-03 17:54:00,49.6,28.0,30.08,NW,312,7.0,-999.0,44,-99.99,,,0.00,weatherlink.com 1.10,2013-02-03 23:54:00,
2013-02-03 18:09:00,49.4,28.0,30.08,WNW,295,6.0,-999.0,44,-99.99,,,0.00,weatherlink.com 1.10,2013-02-04 00:09:00,
2013-02-03 18:24:00,48.7,28.0,30.09,WNW,282,2.0,-999.0,45,-99.99,,,0.00,weatherlink.com 1.10,2013-02-04 00:24:00,
2013-02-03 18:39:00,48.2,28.0,30.09,WNW,298,5.0,-999.0,45,-99.99,,,0.00,weatherlink.com 1.10,2013-02-04 00:39:00,
2013-02-03 18:54:00,47.9,28.0,30.09,West,268,6.0,-999.0,46,-99.99,,,0.00,weatherlink.com 1.10,2013-02-04 00:54:00,
2013-02-03 19:09:00,47.2,28.0,30.10,WNW,284,4.0,-999.0,47,-99.99,,,0.00,weatherlink.com 1.10,2013-02-04 01:09:00,
2013-02-03 19:24:00,46.7,27.0,30.10,WNW,287,4.0,-999.0,47,-99.99,,,0.00,weatherlink.com 1.10,2013-02-04 01:24:00,
2013-02-03 19:39:00,46.2,28.0,30.11,NW,304,0.0,-999.0,49,-99.99,,,0.00,weatherlink.com 1.10,2013-02-04 01:39:00,
2013-02-03 19:54:00,45.1,28.0,30.11,NW,305,0.0,-999.0,52,-99.99,,,0.00,weatherlink.com 1.10,2013-02-04 01:54:00,
2013-02-03 20:10:00,43.0,29.0,30.10,WNW,295,0.0,-999.0,59,-99.99,,,0.00,weatherlink.com 1.10,2013-02-04 02:10:00,
2013-02-03 20:24:00,42.8,29.0,30.11,WNW,292,0.0,-999.0,58,-99.99,,,0.00,weatherlink.com 1.10,2013-02-04 02:24:00,
2013-02-03 20:39:00,41.7,30.0,30.11,WNW,298,0.0,-999.0,63,-99.99,,,0.00,weatherlink.com 1.10,2013-02-04 02:39:00,
2013-02-03 20:54:00,40.1,30.0,30.11,WNW,298,0.0,-999.0,68,-99.99,,,0.00,weatherlink.com 1.10,2013-02-04 02:54:00,
2013-02-03 21:09:00,39.4,30.0,30.12,West,280,3.0,-999.0,70,-99.99,,,0.00,weatherlink.com 1.10,2013-02-04 03:09:00,
2013-02-03 21:24:00,38.0,30.0,30.12,SE,130,1.0,-999.0,72,-99.99,,,0.00,weatherlink.com 1.10,2013-02-04 03:24:00,
2013-02-03 21:39:00,38.8,29.0,30.13,SE,130,0.0,-999.0,68,-99.99,,,0.00,weatherlink.com 1.10,2013-02-04 03:39:00,
2013-02-03 21:54:00,38.8,29.0,30.13,SE,125,0.0,-999.0,68,-99.99,,,0.00,weatherlink.com 1.10,2013-02-04 03:54:00,
2013-02-03 22:09:00,38.9,29.0,30.13,East,80,0.0,-999.0,67,-99.99,,,0.00,weatherlink.com 1.10,2013-02-04 04:09:00,
2013-02-03 22:24:00,38.3,29.0,30.13,NNE,19,0.0,-999.0,68,-99.99,,,0.00,weatherlink.com 1.10,2013-02-04 04:24:00,
2013-02-03 22:39:00,37.4,29.0,30.13,NNE,19,0.0,-999.0,71,-99.99,,,0.00,weatherlink.com 1.10,2013-02-04 04:39:00,
2013-02-03 22:55:00,36.8,29.0,30.13,NNE,19,0.0,-999.0,72,-99.99,,,0.00,weatherlink.com 1.10,2013-02-04 04:55:00,
2013-02-03 23:09:00,36.5,29.0,30.12,NNE,19,0.0,-999.0,73,-99.99,,,0.00,weatherlink.com 1.10,2013-02-04 05:09:00,
2013-02-03 23:24:00,36.2,30.0,30.12,NNE,19,0.0,-999.0,78,-99.99,,,0.00,weatherlink.com 1.10,2013-02-04 05:24:00,
2013-02-03 23:39:00,36.2,31.0,30.11,NNE,19,0.0,-999.0,81,-99.99,,,0.00,weatherlink.com 1.10,2013-02-04 05:39:00,
2013-02-03 23:54:00,36.5,31.0,30.11,NNE,19,0.0,-999.0,79,-99.99,,,0.00,weatherlink.com 1.10,2013-02-04 05:54:00,